| time (UTC) | temp F | wind direction | speed MPH | gust MPH | rain 1hr in | rain 24hr in | rain mn in | humidity % | barometer mb |
| 20260510082847 | 57 | 322 | 1.0 | 1.0 | 0.00 | 0.00 | 0.00 | 95 | 1013.2 |
| 20260510082345 | 57 | 306 | 2.0 | 3.0 | 0.00 | 0.00 | 0.00 | 95 | 1013.2 |
| 20260510081844 | 57 | 266 | 0.0 | 0.0 | 0.00 | 0.00 | 0.00 | 95 | 1013.0 |
| 20260510081340 | 57 | 262 | 0.0 | 0.0 | 0.00 | 0.00 | 0.00 | 95 | 1013.2 |
| 20260510080837 | 57 | 237 | 0.0 | 0.0 | 0.00 | 0.00 | 0.00 | 95 | 1012.7 |
| 20260510080330 | 57 | 217 | 0.0 | 0.0 | 0.00 | 0.00 | 0.00 | 95 | 1012.5 |
| 20260510075828 | 57 | 272 | 0.0 | 0.0 | 0.00 | 0.00 | 0.00 | 95 | 1012.2 |
| 20260510075325 | 57 | 276 | 0.0 | 0.0 | 0.00 | 0.00 | 0.00 | 94 | 1012.4 |
| 20260510074822 | 57 | 276 | 0.0 | 0.0 | 0.00 | 0.00 | 0.00 | 94 | 1012.2 |
| 20260510074319 | 57 | 248 | 0.0 | 0.0 | 0.00 | 0.00 | 0.00 | 94 | 1012.4 |
| 20260510073815 | 57 | 247 | 0.0 | 0.0 | 0.00 | 0.00 | 0.00 | 94 | 1012.4 |
| 20260510073311 | 58 | 319 | 0.0 | 0.0 | 0.00 | 0.00 | 0.00 | 94 | 1012.3 |
| 20260510072807 | 58 | 319 | 1.0 | 1.0 | 0.00 | 0.00 | 0.00 | 94 | 1012.6 |
| 20260510072306 | 58 | 320 | 1.0 | 1.0 | 0.00 | 0.00 | 0.00 | 94 | 1012.6 |
| 20260510071800 | 57 | 318 | 2.0 | 3.0 | 0.00 | 0.00 | 0.00 | 95 | 1012.5 |
| 20260510071257 | 57 | 267 | 0.0 | 0.0 | 0.00 | 0.00 | 0.00 | 95 | 1012.5 |
| 20260510070756 | 57 | 246 | 0.0 | 0.0 | 0.00 | 0.00 | 0.00 | 94 | 1012.4 |
| 20260510070253 | 57 | 258 | 1.0 | 1.0 | 0.00 | 0.00 | 0.00 | 94 | 1012.3 |
| 20260510065752 | 57 | 270 | 1.0 | 1.0 | 0.00 | 0.00 | 0.00 | 94 | 1012.4 |
| 20260510065249 | 57 | 263 | 0.0 | 0.0 | 0.00 | 0.00 | 0.00 | 94 | 1012.3 |
| 20260510064746 | 57 | 230 | 0.0 | 0.0 | 0.00 | 0.00 | 0.00 | 94 | 1012.5 |
| 20260510064244 | 57 | 230 | 0.0 | 0.0 | 0.00 | 0.00 | 0.00 | 94 | 1012.8 |
| 20260510063739 | 57 | 230 | 0.0 | 0.0 | 0.00 | 0.00 | 0.00 | 94 | 1012.7 |
| 20260510063236 | 57 | 230 | 0.0 | 0.0 | 0.00 | 0.00 | 0.00 | 94 | 1013.2 |
| 20260510062732 | 57 | 230 | 0.0 | 0.0 | 0.00 | 0.00 | 0.00 | 94 | 1013.1 |
| 20260510062229 | 57 | 230 | 0.0 | 0.0 | 0.00 | 0.00 | 0.00 | 94 | 1013.3 |
| 20260510061724 | 57 | 230 | 0.0 | 1.0 | 0.00 | 0.00 | 0.00 | 94 | 1013.5 |
| 20260510061222 | 57 | 263 | 0.0 | 0.0 | 0.00 | 0.00 | 0.00 | 94 | 1013.3 |
| 20260510060718 | 57 | 263 | 0.0 | 0.0 | 0.00 | 0.00 | 0.00 | 94 | 1013.4 |
| 20260510060214 | 57 | 262 | 0.0 | 0.0 | 0.00 | 0.00 | 0.00 | 94 | 1013.3 |
| 20260510055711 | 57 | 262 | 0.0 | 0.0 | 0.00 | 0.00 | 0.00 | 94 | 1013.4 |
| 20260510055209 | 57 | 262 | 0.0 | 0.0 | 0.00 | 0.00 | 0.00 | 94 | 1013.4 |
| 20260510054704 | 57 | 262 | 0.0 | 0.0 | 0.00 | 0.00 | 0.00 | 94 | 1013.5 |
| 20260510054200 | 57 | 279 | 0.0 | 0.0 | 0.00 | 0.00 | 0.00 | 94 | 1013.6 |
| 20260510053700 | 57 | 293 | 1.0 | 1.0 | 0.00 | 0.00 | 0.00 | 94 | 1013.5 |
| 20260510053157 | 57 | 231 | 0.0 | 0.0 | 0.00 | 0.00 | 0.00 | 94 | 1013.7 |
| 20260510052652 | 57 | 231 | 0.0 | 0.0 | 0.00 | 0.00 | 0.00 | 94 | 1013.5 |
| 20260510052148 | 57 | 230 | 0.0 | 0.0 | 0.00 | 0.00 | 0.00 | 93 | 1013.7 |
| 20260510051644 | 57 | 231 | 0.0 | 0.0 | 0.00 | 0.00 | 0.00 | 93 | 1013.7 |
| 20260510051141 | 57 | 234 | 0.0 | 0.0 | 0.00 | 0.00 | 0.00 | 93 | 1013.5 |
| 20260510050638 | 57 | 250 | 0.0 | 0.0 | 0.00 | 0.00 | 0.00 | 93 | 1013.3 |
| 20260510050136 | 57 | 264 | 0.0 | 0.0 | 0.00 | 0.00 | 0.00 | 92 | 1013.5 |
| 20260510045632 | 57 | 247 | 0.0 | 0.0 | 0.00 | 0.00 | 0.00 | 92 | 1013.3 |
| 20260510045129 | 57 | 286 | 0.0 | 0.0 | 0.00 | 0.00 | 0.00 | 92 | 1013.2 |
| 20260510044625 | 57 | 282 | 0.0 | 0.0 | 0.00 | 0.00 | 0.00 | 92 | 1013.3 |
| 20260510044122 | 57 | 278 | 1.0 | 1.0 | 0.00 | 0.00 | 0.00 | 92 | 1013.0 |
| 20260510043618 | 57 | 262 | 0.0 | 0.0 | 0.00 | 0.00 | 0.00 | 92 | 1013.1 |
| 20260510043115 | 57 | 261 | 0.0 | 0.0 | 0.00 | 0.00 | 0.00 | 92 | 1013.2 |
| 20260510042613 | 57 | 299 | 0.0 | 0.0 | 0.00 | 0.00 | 0.00 | 91 | 1013.3 |
| 20260510042108 | 57 | 263 | 0.0 | 0.0 | 0.00 | 0.00 | 0.00 | 91 | 1012.8 |
| 20260510041605 | 57 | 263 | 0.0 | 0.0 | 0.00 | 0.00 | 0.00 | 91 | 1013.1 |
| 20260510041103 | 57 | 263 | 0.0 | 0.0 | 0.00 | 0.00 | 0.00 | 91 | 1012.8 |
| 20260510040600 | 57 | 305 | 0.0 | 0.0 | 0.00 | 0.00 | 0.00 | 91 | 1012.8 |
| 20260510040055 | 57 | 257 | 0.0 | 0.0 | 0.00 | 0.00 | 0.00 | 91 | 1013.1 |
| 20260510035552 | 57 | 292 | 0.0 | 0.0 | 0.00 | 0.00 | 0.00 | 91 | 1013.0 |
| 20260510035051 | 57 | 301 | 0.0 | 0.0 | 0.00 | 0.00 | 0.00 | 91 | 1012.5 |
| 20260510034550 | 57 | 244 | 0.0 | 0.0 | 0.00 | 0.00 | 0.00 | 91 | 1013.0 |
| 20260510034046 | 57 | 244 | 0.0 | 0.0 | 0.00 | 0.00 | 0.00 | 91 | 1012.6 |
| 20260510033542 | 57 | 244 | 0.0 | 0.0 | 0.00 | 0.00 | 0.00 | 91 | 1012.5 |
| 20260510033041 | 57 | 245 | 0.0 | 0.0 | 0.00 | 0.00 | 0.00 | 90 | 1012.3 |
| 20260510032537 | 57 | 245 | 0.0 | 0.0 | 0.00 | 0.00 | 0.00 | 89 | 1012.4 |
| 20260510032032 | 57 | 245 | 0.0 | 0.0 | 0.00 | 0.00 | 0.00 | 89 | 1012.2 |
| 20260510031527 | 57 | 244 | 0.0 | 0.0 | 0.00 | 0.00 | 0.00 | 88 | 1012.2 |
| 20260510031023 | 58 | 244 | 0.0 | 0.0 | 0.00 | 0.00 | 0.00 | 88 | 1012.1 |
| 20260510030519 | 58 | 215 | 0.0 | 0.0 | 0.00 | 0.00 | 0.00 | 88 | 1012.2 |
| 20260510030017 | 58 | 217 | 0.0 | 0.0 | 0.00 | 0.00 | 0.00 | 88 | 1012.0 |
| 20260510025513 | 59 | 255 | 0.0 | 0.0 | 0.00 | 0.00 | 0.00 | 89 | 1011.9 |
| 20260510025011 | 59 | 255 | 0.0 | 0.0 | 0.00 | 0.00 | 0.00 | 89 | 1011.9 |
| 20260510024508 | 59 | 255 | 0.0 | 0.0 | 0.00 | 0.00 | 0.00 | 89 | 1011.9 |
| 20260510024004 | 59 | 255 | 0.0 | 0.0 | 0.00 | 0.00 | 0.00 | 88 | 1011.8 |
| 20260510023500 | 59 | 255 | 0.0 | 0.0 | 0.00 | 0.00 | 0.00 | 88 | 1011.8 |
| 20260510022957 | 60 | 255 | 0.0 | 0.0 | 0.00 | 0.00 | 0.00 | 88 | 1011.6 |
| 20260510022456 | 60 | 255 | 0.0 | 0.0 | 0.00 | 0.00 | 0.00 | 88 | 1011.6 |
| 20260510021955 | 60 | 255 | 0.0 | 0.0 | 0.00 | 0.00 | 0.00 | 87 | 1011.3 |
| 20260510021453 | 60 | 255 | 0.0 | 0.0 | 0.00 | 0.00 | 0.00 | 87 | 1011.2 |
| 20260510020950 | 61 | 255 | 0.0 | 0.0 | 0.00 | 0.00 | 0.00 | 87 | 1011.0 |
| 20260510020444 | 61 | 255 | 0.0 | 0.0 | 0.00 | 0.00 | 0.00 | 86 | 1011.1 |
| 20260510015940 | 62 | 255 | 0.0 | 0.0 | 0.00 | 0.00 | 0.00 | 86 | 1010.8 |
| 20260510015436 | 62 | 255 | 0.0 | 0.0 | 0.00 | 0.00 | 0.00 | 85 | 1010.8 |
| 20260510014931 | 62 | 255 | 0.0 | 0.0 | 0.00 | 0.00 | 0.00 | 85 | 1010.8 |
| 20260510014429 | 63 | 254 | 0.0 | 0.0 | 0.00 | 0.00 | 0.00 | 85 | 1010.5 |
| 20260510013926 | 63 | 255 | 0.0 | 0.0 | 0.00 | 0.00 | 0.00 | 84 | 1010.4 |
| 20260510013420 | 64 | 255 | 0.0 | 0.0 | 0.00 | 0.00 | 0.00 | 82 | 1010.4 |
| 20260510012916 | 64 | 255 | 0.0 | 0.0 | 0.00 | 0.00 | 0.00 | 81 | 1010.3 |
| 20260510012411 | 65 | 255 | 0.0 | 0.0 | 0.00 | 0.00 | 0.00 | 80 | 1010.2 |
| 20260510011906 | 66 | 255 | 0.0 | 0.0 | 0.00 | 0.00 | 0.00 | 79 | 1010.1 |
| 20260510011401 | 66 | 255 | 0.0 | 0.0 | 0.00 | 0.00 | 0.00 | 77 | 1010.0 |
| 20260510010858 | 67 | 255 | 0.0 | 0.0 | 0.00 | 0.00 | 0.00 | 76 | 1009.7 |
| 20260510010355 | 68 | 255 | 0.0 | 0.0 | 0.00 | 0.00 | 0.00 | 74 | 1009.9 |
| 20260510005852 | 68 | 255 | 0.0 | 0.0 | 0.00 | 0.00 | 0.00 | 72 | 1009.6 |
| 20260510005348 | 69 | 256 | 0.0 | 0.0 | 0.00 | 0.00 | 0.00 | 71 | 1009.7 |
| 20260510004846 | 69 | 256 | 0.0 | 0.0 | 0.00 | 0.00 | 0.00 | 73 | 1009.7 |
| 20260510004343 | 70 | 255 | 0.0 | 0.0 | 0.00 | 0.00 | 0.00 | 72 | 1009.4 |
| 20260510003841 | 71 | 256 | 0.0 | 0.0 | 0.00 | 0.00 | 0.00 | 70 | 1009.7 |
| 20260510003338 | 72 | 255 | 0.0 | 0.0 | 0.00 | 0.00 | 0.00 | 67 | 1009.4 |
| 20260510002836 | 73 | 255 | 0.0 | 0.0 | 0.00 | 0.00 | 0.00 | 64 | 1009.5 |
| 20260510002333 | 73 | 274 | 0.0 | 0.0 | 0.00 | 0.00 | 0.00 | 60 | 1009.5 |
| 20260510001830 | 74 | 276 | 0.0 | 0.0 | 0.00 | 0.00 | 0.00 | 57 | 1009.4 |
| 20260510001328 | 75 | 276 | 0.0 | 0.0 | 0.00 | 0.00 | 0.00 | 55 | 1009.5 |
| 20260510000824 | 76 | 276 | 0.0 | 0.0 | 0.00 | 0.00 | 0.00 | 50 | 1009.4 |
| 20260510000322 | 76 | 276 | 0.0 | 0.0 | 0.00 | 0.00 | 0.00 | 48 | 1009.6 |
| 20260509235819 | 77 | 277 | 0.0 | 0.0 | 0.00 | 0.00 | 0.00 | 47 | 1009.4 |
| 20260509235315 | 78 | 278 | 1.0 | 1.0 | 0.00 | 0.00 | 0.00 | 45 | 1009.7 |
| 20260509234811 | 79 | 277 | 0.0 | 0.0 | 0.00 | 0.00 | 0.00 | 44 | 1009.6 |
| 20260509234308 | 80 | 276 | 0.0 | 0.0 | 0.00 | 0.00 | 0.00 | 43 | 1009.5 |
| 20260509233806 | 80 | 282 | 0.0 | 0.0 | 0.00 | 0.00 | 0.00 | 42 | 1009.7 |
| 20260509233303 | 83 | 282 | 0.0 | 0.0 | 0.00 | 0.00 | 0.00 | 39 | 1009.9 |
| 20260509232759 | 85 | 279 | 0.0 | 0.0 | 0.00 | 0.00 | 0.00 | 33 | 1009.7 |
| 20260509232257 | 86 | 279 | 0.0 | 0.0 | 0.00 | 0.00 | 0.00 | 37 | 1009.7 |
| 20260509231753 | 86 | 279 | 0.0 | 0.0 | 0.00 | 0.00 | 0.00 | 39 | 1009.9 |
| 20260509231250 | 86 | 279 | 0.0 | 0.0 | 0.00 | 0.00 | 0.00 | 34 | 1009.7 |
| 20260509230748 | 85 | 283 | 0.0 | 1.0 | 0.00 | 0.00 | 0.00 | 40 | 1009.9 |
| 20260509230244 | 83 | 265 | 0.0 | 0.0 | 0.00 | 0.00 | 0.00 | 44 | 1009.7 |
| 20260509225739 | 80 | 286 | 0.0 | 0.0 | 0.00 | 0.00 | 0.00 | 41 | 1009.7 |
| 20260509225236 | 80 | 287 | 0.0 | 0.0 | 0.00 | 0.00 | 0.00 | 40 | 1009.9 |
| 20260509224731 | 81 | 276 | 0.0 | 0.0 | 0.00 | 0.00 | 0.00 | 34 | 1009.9 |
| 20260509224229 | 82 | 283 | 1.0 | 1.0 | 0.00 | 0.00 | 0.00 | 40 | 1009.9 |
| 20260509223725 | 81 | 283 | 0.0 | 0.0 | 0.00 | 0.00 | 0.00 | 44 | 1009.7 |
| 20260509223222 | 81 | 279 | 0.0 | 0.0 | 0.00 | 0.00 | 0.00 | 42 | 1010.0 |
| 20260509222719 | 82 | 272 | 0.0 | 0.0 | 0.00 | 0.00 | 0.00 | 39 | 1009.9 |
| 20260509222214 | 82 | 267 | 0.0 | 1.0 | 0.00 | 0.00 | 0.00 | 37 | 1010.0 |
| 20260509221711 | 83 | 271 | 0.0 | 1.0 | 0.00 | 0.00 | 0.00 | 41 | 1010.1 |
| 20260509221207 | 83 | 273 | 0.0 | 0.0 | 0.00 | 0.00 | 0.00 | 37 | 1009.9 |
| 20260509220703 | 84 | 273 | 0.0 | 0.0 | 0.00 | 0.00 | 0.00 | 35 | 1010.1 |
| 20260509220159 | 86 | 276 | 0.0 | 0.0 | 0.00 | 0.00 | 0.00 | 33 | 1009.9 |
| 20260509215655 | 84 | 273 | 0.0 | 0.0 | 0.00 | 0.00 | 0.00 | 36 | 1010.2 |
| 20260509215152 | 85 | 286 | 1.0 | 1.0 | 0.00 | 0.00 | 0.00 | 33 | 1010.0 |
| 20260509214649 | 83 | 285 | 0.0 | 1.0 | 0.00 | 0.00 | 0.00 | 31 | 1010.1 |
| 20260509214146 | 81 | 257 | 0.0 | 0.0 | 0.00 | 0.00 | 0.00 | 34 | 1010.1 |
| 20260509213643 | 81 | 241 | 1.0 | 1.0 | 0.00 | 0.00 | 0.00 | 35 | 1010.1 |
| 20260509213138 | 83 | 305 | 1.0 | 3.0 | 0.00 | 0.00 | 0.00 | 35 | 1010.1 |
| 20260509212636 | 84 | 266 | 1.0 | 1.0 | 0.00 | 0.00 | 0.00 | 37 | 1009.9 |
| 20260509212133 | 85 | 270 | 1.0 | 1.0 | 0.00 | 0.00 | 0.00 | 40 | 1010.1 |
| 20260509211629 | 84 | 259 | 2.0 | 3.0 | 0.00 | 0.00 | 0.00 | 34 | 1010.1 |
| 20260509211126 | 86 | 217 | 4.0 | 4.0 | 0.00 | 0.00 | 0.00 | 32 | 1010.3 |
| 20260509210622 | 86 | 270 | 0.0 | 0.0 | 0.00 | 0.00 | 0.00 | 36 | 1010.2 |
| 20260509210120 | 84 | 269 | 1.0 | 1.0 | 0.00 | 0.00 | 0.00 | 37 | 1010.4 |
| 20260509205614 | 84 | 261 | 0.0 | 1.0 | 0.00 | 0.00 | 0.00 | 33 | 1010.4 |
| 20260509205109 | 84 | 284 | 0.0 | 0.0 | 0.00 | 0.00 | 0.00 | 33 | 1010.6 |
| 20260509204605 | 85 | 237 | 2.0 | 3.0 | 0.00 | 0.00 | 0.00 | 37 | 1010.6 |
| 20260509204102 | 84 | 263 | 0.0 | 1.0 | 0.00 | 0.00 | 0.00 | 41 | 1010.7 |
| 20260509203558 | 84 | 329 | 2.0 | 3.0 | 0.00 | 0.00 | 0.00 | 32 | 1010.6 |
| 20260509203057 | 83 | 290 | 2.0 | 3.0 | 0.00 | 0.00 | 0.00 | 37 | 1010.8 |
| 20260509202556 | 83 | 299 | 2.0 | 3.0 | 0.00 | 0.00 | 0.00 | 37 | 1010.8 |
| 20260509202052 | 83 | 268 | 0.0 | 0.0 | 0.00 | 0.00 | 0.00 | 32 | 1010.8 |
| 20260509201547 | 83 | 278 | 2.0 | 3.0 | 0.00 | 0.00 | 0.00 | 35 | 1010.8 |
| 20260509201045 | 84 | 217 | 3.0 | 4.0 | 0.00 | 0.00 | 0.00 | 34 | 1010.8 |
| 20260509200544 | 82 | 280 | 0.0 | 0.0 | 0.00 | 0.00 | 0.00 | 39 | 1010.7 |
| 20260509200042 | 82 | 295 | 0.0 | 0.0 | 0.00 | 0.00 | 0.00 | 34 | 1010.8 |
| 20260509195537 | 83 | 278 | 0.0 | 1.0 | 0.00 | 0.00 | 0.00 | 34 | 1010.8 |
| 20260509195037 | 83 | 261 | 2.0 | 3.0 | 0.00 | 0.00 | 0.00 | 36 | 1011.0 |
| 20260509194532 | 83 | 267 | 2.0 | 3.0 | 0.00 | 0.00 | 0.00 | 39 | 1011.0 |
| 20260509194030 | 82 | 230 | 1.0 | 1.0 | 0.00 | 0.00 | 0.00 | 33 | 1011.0 |
| 20260509193530 | 82 | 241 | 0.0 | 0.0 | 0.00 | 0.00 | 0.00 | 34 | 1011.0 |
| 20260509193027 | 83 | 225 | 3.0 | 4.0 | 0.00 | 0.00 | 0.00 | 35 | 1011.1 |
| 20260509192524 | 84 | 256 | 1.0 | 1.0 | 0.00 | 0.00 | 0.00 | 37 | 1011.1 |
| 20260509192019 | 83 | 269 | 0.0 | 0.0 | 0.00 | 0.00 | 0.00 | 38 | 1011.3 |
| 20260509191513 | 83 | 275 | 0.0 | 1.0 | 0.00 | 0.00 | 0.00 | 34 | 1011.2 |
| 20260509191009 | 81 | 249 | 1.0 | 1.0 | 0.00 | 0.00 | 0.00 | 40 | 1011.2 |
| 20260509190506 | 82 | 243 | 1.0 | 1.0 | 0.00 | 0.00 | 0.00 | 33 | 1011.1 |
| 20260509190005 | 82 | 271 | 2.0 | 3.0 | 0.00 | 0.00 | 0.00 | 38 | 1011.3 |
| 20260509185501 | 82 | 323 | 2.0 | 3.0 | 0.00 | 0.00 | 0.00 | 42 | 1011.3 |
| 20260509184958 | 81 | 215 | 1.0 | 1.0 | 0.00 | 0.00 | 0.00 | 42 | 1011.3 |
| 20260509184457 | 81 | 205 | 2.0 | 3.0 | 0.00 | 0.00 | 0.00 | 41 | 1011.2 |
| 20260509183953 | 81 | 268 | 1.0 | 1.0 | 0.00 | 0.00 | 0.00 | 43 | 1011.3 |
| 20260509183452 | 80 | 318 | 3.0 | 4.0 | 0.00 | 0.00 | 0.00 | 35 | 1011.3 |
| 20260509182949 | 81 | 297 | 2.0 | 3.0 | 0.00 | 0.00 | 0.00 | 48 | 1011.2 |
| 20260509182445 | 80 | 213 | 2.0 | 3.0 | 0.00 | 0.00 | 0.00 | 40 | 1011.3 |
| 20260509181943 | 80 | 235 | 4.0 | 4.0 | 0.00 | 0.00 | 0.00 | 35 | 1011.3 |
| 20260509181441 | 82 | 269 | 1.0 | 1.0 | 0.00 | 0.00 | 0.00 | 40 | 1011.5 |
| 20260509180939 | 81 | 279 | 1.0 | 1.0 | 0.00 | 0.00 | 0.00 | 42 | 1011.4 |
| 20260509180434 | 80 | 253 | 1.0 | 1.0 | 0.00 | 0.00 | 0.00 | 44 | 1011.5 |
| 20260509175931 | 80 | 227 | 0.0 | 0.0 | 0.00 | 0.00 | 0.00 | 38 | 1011.5 |
| 20260509175427 | 80 | 325 | 1.0 | 1.0 | 0.00 | 0.00 | 0.00 | 45 | 1011.7 |
| 20260509174923 | 80 | 272 | 1.0 | 3.0 | 0.00 | 0.00 | 0.00 | 42 | 1011.6 |
| 20260509174419 | 79 | 273 | 1.0 | 1.0 | 0.00 | 0.00 | 0.00 | 47 | 1011.6 |
| 20260509173915 | 80 | 284 | 1.0 | 1.0 | 0.00 | 0.00 | 0.00 | 45 | 1011.4 |
| 20260509173415 | 80 | 264 | 0.0 | 1.0 | 0.00 | 0.00 | 0.00 | 50 | 1011.5 |
| 20260509172912 | 79 | 272 | 2.0 | 3.0 | 0.00 | 0.00 | 0.00 | 55 | 1011.5 |
| 20260509172409 | 78 | 273 | 2.0 | 3.0 | 0.00 | 0.00 | 0.00 | 50 | 1011.6 |
| 20260509171904 | 78 | 192 | 4.0 | 5.0 | 0.00 | 0.00 | 0.00 | 50 | 1011.7 |
| 20260509171400 | 78 | 92 | 3.0 | 4.0 | 0.00 | 0.00 | 0.00 | 47 | 1011.7 |
| 20260509170857 | 78 | 203 | 3.0 | 4.0 | 0.00 | 0.00 | 0.00 | 47 | 1011.8 |
| 20260509170353 | 80 | 316 | 2.0 | 3.0 | 0.00 | 0.00 | 0.00 | 48 | 1011.7 |
| 20260509165848 | 79 | 270 | 2.0 | 3.0 | 0.00 | 0.00 | 0.00 | 51 | 1011.9 |
| 20260509165342 | 78 | 196 | 1.0 | 3.0 | 0.00 | 0.00 | 0.00 | 55 | 1011.7 |
| 20260509164838 | 77 | 43 | 1.0 | 1.0 | 0.00 | 0.00 | 0.00 | 55 | 1011.7 |
| 20260509164335 | 77 | 186 | 4.0 | 4.0 | 0.00 | 0.00 | 0.00 | 55 | 1011.7 |
| 20260509163831 | 76 | 87 | 0.0 | 1.0 | 0.00 | 0.00 | 0.00 | 61 | 1011.7 |
| 20260509163328 | 77 | 170 | 2.0 | 3.0 | 0.00 | 0.00 | 0.00 | 59 | 1011.7 |
| 20260509162828 | 76 | 240 | 0.0 | 0.0 | 0.00 | 0.00 | 0.00 | 60 | 1011.6 |
| 20260509162325 | 75 | 11 | 1.0 | 1.0 | 0.00 | 0.00 | 0.00 | 60 | 1011.8 |
| 20260509161822 | 76 | 181 | 3.0 | 4.0 | 0.00 | 0.00 | 0.00 | 59 | 1011.7 |
| 20260509161319 | 76 | 197 | 2.0 | 4.0 | 0.00 | 0.00 | 0.00 | 67 | 1011.6 |
| 20260509160814 | 75 | 276 | 1.0 | 1.0 | 0.00 | 0.00 | 0.00 | 64 | 1011.5 |
| 20260509160310 | 75 | 209 | 3.0 | 4.0 | 0.00 | 0.00 | 0.00 | 62 | 1011.9 |
| 20260509155806 | 75 | 249 | 2.0 | 3.0 | 0.00 | 0.00 | 0.00 | 66 | 1011.6 |
| 20260509155306 | 75 | 236 | 2.0 | 3.0 | 0.00 | 0.00 | 0.00 | 66 | 1011.7 |
| 20260509154758 | 74 | 238 | 1.0 | 1.0 | 0.00 | 0.00 | 0.00 | 69 | 1011.7 |
| 20260509154256 | 73 | 156 | 0.0 | 0.0 | 0.00 | 0.00 | 0.00 | 68 | 1011.6 |
| 20260509153753 | 73 | 207 | 2.0 | 3.0 | 0.00 | 0.00 | 0.00 | 71 | 1011.7 |
| 20260509153248 | 72 | 205 | 2.0 | 4.0 | 0.00 | 0.00 | 0.00 | 71 | 1011.6 |
| 20260509152746 | 72 | 253 | 0.0 | 1.0 | 0.00 | 0.00 | 0.00 | 71 | 1011.6 |
| 20260509152242 | 71 | 241 | 3.0 | 4.0 | 0.00 | 0.00 | 0.00 | 72 | 1011.9 |
| 20260509151739 | 70 | 216 | 0.0 | 0.0 | 0.00 | 0.00 | 0.00 | 75 | 1011.7 |
| 20260509151235 | 70 | 226 | 0.0 | 1.0 | 0.00 | 0.00 | 0.00 | 73 | 1011.7 |
| 20260509150734 | 70 | 248 | 3.0 | 4.0 | 0.00 | 0.00 | 0.00 | 74 | 1011.8 |
| 20260509150232 | 69 | 202 | 2.0 | 3.0 | 0.00 | 0.00 | 0.00 | 74 | 1011.6 |
| 20260509145728 | 68 | 197 | 1.0 | 1.0 | 0.00 | 0.00 | 0.00 | 77 | 1011.6 |
| 20260509145223 | 68 | 249 | 5.0 | 5.0 | 0.00 | 0.00 | 0.00 | 76 | 1011.6 |
| 20260509144719 | 67 | 202 | 0.0 | 0.0 | 0.00 | 0.00 | 0.00 | 77 | 1011.7 |
| 20260509144216 | 66 | 251 | 3.0 | 4.0 | 0.00 | 0.00 | 0.00 | 77 | 1011.8 |
| 20260509143714 | 66 | 230 | 2.0 | 3.0 | 0.00 | 0.00 | 0.00 | 79 | 1011.7 |
| 20260509143211 | 66 | 223 | 2.0 | 3.0 | 0.00 | 0.00 | 0.00 | 77 | 1011.8 |
| 20260509142706 | 67 | 217 | 3.0 | 4.0 | 0.00 | 0.00 | 0.00 | 75 | 1011.8 |
| 20260509142203 | 66 | 230 | 2.0 | 3.0 | 0.00 | 0.00 | 0.00 | 76 | 1011.6 |
| 20260509141658 | 65 | 340 | 0.0 | 1.0 | 0.00 | 0.00 | 0.00 | 81 | 1011.8 |
| 20260509141156 | 64 | 218 | 0.0 | 1.0 | 0.00 | 0.00 | 0.00 | 82 | 1011.8 |
| 20260509140652 | 64 | 205 | 2.0 | 3.0 | 0.00 | 0.00 | 0.00 | 83 | 1011.7 |
| 20260509140150 | 63 | 246 | 0.0 | 1.0 | 0.00 | 0.00 | 0.00 | 82 | 1011.7 |
| 20260509135647 | 62 | 235 | 1.0 | 1.0 | 0.00 | 0.00 | 0.00 | 84 | 1011.6 |
| 20260509135146 | 61 | 195 | 1.0 | 3.0 | 0.00 | 0.00 | 0.00 | 87 | 1011.6 |
| 20260509134641 | 59 | 297 | 0.0 | 0.0 | 0.00 | 0.00 | 0.00 | 90 | 1011.5 |
| 20260509134139 | 60 | 341 | 1.0 | 1.0 | 0.00 | 0.00 | 0.00 | 91 | 1011.5 |
| 20260509133636 | 60 | 309 | 0.0 | 0.0 | 0.00 | 0.00 | 0.00 | 97 | 1011.5 |
| 20260509133133 | 58 | 164 | 1.0 | 1.0 | 0.00 | 0.00 | 0.00 | 99 | 1011.4 |
| 20260509132631 | 57 | 123 | 0.0 | 0.0 | 0.00 | 0.00 | 0.00 | 99 | 1011.3 |
| 20260509132130 | 56 | 340 | 0.0 | 0.0 | 0.00 | 0.00 | 0.00 | 99 | 1011.4 |
| 20260509131625 | 57 | 317 | 0.0 | 0.0 | 0.00 | 0.00 | 0.00 | 99 | 1011.3 |
| 20260509131123 | 55 | 165 | 0.0 | 0.0 | 0.00 | 0.00 | 0.00 | 99 | 1011.5 |
| 20260509130618 | 53 | 249 | 0.0 | 0.0 | 0.00 | 0.00 | 0.00 | 99 | 1011.4 |
| 20260509130115 | 51 | 327 | 1.0 | 1.0 | 0.00 | 0.00 | 0.00 | 99 | 1011.4 |
| 20260509125611 | 52 | 336 | 1.0 | 1.0 | 0.00 | 0.00 | 0.00 | 99 | 1011.5 |
| 20260509125108 | 51 | 204 | 0.0 | 1.0 | 0.00 | 0.00 | 0.00 | 99 | 1011.5 |
| 20260509124605 | 51 | 193 | 1.0 | 1.0 | 0.00 | 0.00 | 0.00 | 99 | 1011.3 |
| 20260509124102 | 50 | 254 | 0.0 | 0.0 | 0.00 | 0.00 | 0.00 | 99 | 1011.0 |
| 20260509123600 | 50 | 255 | 0.0 | 0.0 | 0.00 | 0.00 | 0.00 | 99 | 1011.2 |
| 20260509123056 | 49 | 254 | 0.0 | 0.0 | 0.00 | 0.00 | 0.00 | 99 | 1011.2 |
| 20260509122552 | 48 | 254 | 0.0 | 0.0 | 0.00 | 0.00 | 0.00 | 99 | 1011.2 |
| 20260509122050 | 48 | 289 | 0.0 | 0.0 | 0.00 | 0.00 | 0.00 | 99 | 1011.1 |
| 20260509121546 | 47 | 290 | 0.0 | 0.0 | 0.00 | 0.00 | 0.00 | 99 | 1011.0 |
| 20260509121048 | 47 | 290 | 0.0 | 0.0 | 0.00 | 0.00 | 0.00 | 99 | 1010.8 |
| 20260509120542 | 46 | 251 | 0.0 | 0.0 | 0.00 | 0.00 | 0.00 | 99 | 1011.1 |
| 20260509120040 | 46 | 273 | 0.0 | 0.0 | 0.00 | 0.00 | 0.00 | 99 | 1010.9 |
| 20260509115536 | 46 | 271 | 0.0 | 0.0 | 0.00 | 0.00 | 0.00 | 99 | 1010.9 |
| 20260509115034 | 46 | 293 | 0.0 | 0.0 | 0.00 | 0.00 | 0.00 | 99 | 1010.8 |
| 20260509114532 | 46 | 276 | 0.0 | 0.0 | 0.00 | 0.00 | 0.00 | 99 | 1010.8 |
| 20260509114031 | 46 | 227 | 0.0 | 0.0 | 0.00 | 0.00 | 0.00 | 99 | 1010.7 |
| 20260509113529 | 46 | 226 | 0.0 | 0.0 | 0.00 | 0.00 | 0.00 | 99 | 1010.4 |
| 20260509113026 | 46 | 226 | 0.0 | 0.0 | 0.00 | 0.00 | 0.00 | 99 | 1010.4 |
| 20260509112522 | 46 | 226 | 0.0 | 0.0 | 0.00 | 0.00 | 0.00 | 99 | 1010.4 |
| 20260509112019 | 46 | 266 | 0.0 | 0.0 | 0.00 | 0.00 | 0.00 | 99 | 1010.5 |
| 20260509111517 | 46 | 262 | 0.0 | 0.0 | 0.00 | 0.00 | 0.00 | 99 | 1010.7 |
| 20260509111014 | 46 | 262 | 0.0 | 0.0 | 0.00 | 0.00 | 0.00 | 99 | 1010.5 |
| 20260509110510 | 47 | 262 | 0.0 | 0.0 | 0.00 | 0.00 | 0.00 | 99 | 1010.4 |
| 20260509110007 | 47 | 262 | 0.0 | 0.0 | 0.00 | 0.00 | 0.00 | 99 | 1010.4 |
| 20260509105506 | 46 | 260 | 0.0 | 0.0 | 0.00 | 0.00 | 0.00 | 99 | 1010.6 |
| 20260509105003 | 46 | 260 | 0.0 | 0.0 | 0.00 | 0.00 | 0.00 | 99 | 1010.4 |
| 20260509104459 | 47 | 260 | 0.0 | 0.0 | 0.00 | 0.00 | 0.00 | 99 | 1010.7 |
| 20260509103957 | 47 | 260 | 0.0 | 0.0 | 0.00 | 0.00 | 0.00 | 99 | 1010.4 |
| 20260509103454 | 47 | 260 | 0.0 | 0.0 | 0.00 | 0.00 | 0.00 | 99 | 1010.4 |
| 20260509102952 | 47 | 260 | 0.0 | 0.0 | 0.00 | 0.00 | 0.00 | 98 | 1010.4 |
| 20260509102449 | 47 | 261 | 0.0 | 0.0 | 0.00 | 0.00 | 0.00 | 98 | 1010.5 |
| 20260509101946 | 47 | 261 | 0.0 | 0.0 | 0.00 | 0.00 | 0.00 | 98 | 1010.2 |
| 20260509101442 | 48 | 261 | 0.0 | 0.0 | 0.00 | 0.00 | 0.00 | 98 | 1010.5 |
| 20260509100939 | 48 | 261 | 0.0 | 0.0 | 0.00 | 0.00 | 0.00 | 98 | 1010.4 |
| 20260509100437 | 47 | 260 | 0.0 | 0.0 | 0.00 | 0.00 | 0.00 | 98 | 1010.4 |
| 20260509095933 | 48 | 260 | 0.0 | 0.0 | 0.00 | 0.00 | 0.00 | 98 | 1010.6 |
| 20260509095430 | 48 | 260 | 0.0 | 0.0 | 0.00 | 0.00 | 0.00 | 98 | 1010.5 |
| 20260509094927 | 48 | 260 | 0.0 | 0.0 | 0.00 | 0.00 | 0.00 | 98 | 1010.6 |
| 20260509094424 | 48 | 260 | 0.0 | 0.0 | 0.00 | 0.00 | 0.00 | 98 | 1010.6 |
| 20260509093922 | 48 | 286 | 0.0 | 0.0 | 0.00 | 0.00 | 0.00 | 98 | 1010.6 |
| 20260509093419 | 48 | 286 | 0.0 | 0.0 | 0.00 | 0.00 | 0.00 | 98 | 1010.5 |
| 20260509092917 | 48 | 286 | 0.0 | 0.0 | 0.00 | 0.00 | 0.00 | 98 | 1010.4 |
| 20260509092414 | 48 | 286 | 0.0 | 0.0 | 0.00 | 0.00 | 0.00 | 98 | 1010.6 |
| 20260509091913 | 48 | 286 | 0.0 | 0.0 | 0.00 | 0.00 | 0.00 | 98 | 1010.5 |
| 20260509091409 | 49 | 286 | 0.0 | 0.0 | 0.00 | 0.00 | 0.00 | 98 | 1010.7 |
| 20260509090907 | 49 | 286 | 0.0 | 0.0 | 0.00 | 0.00 | 0.00 | 98 | 1010.4 |
| 20260509090403 | 48 | 286 | 0.0 | 0.0 | 0.00 | 0.00 | 0.00 | 98 | 1010.6 |
| 20260509085901 | 49 | 286 | 0.0 | 0.0 | 0.00 | 0.00 | 0.00 | 98 | 1010.6 |
| 20260509085358 | 49 | 286 | 0.0 | 0.0 | 0.00 | 0.00 | 0.00 | 98 | 1010.7 |
| 20260509084854 | 50 | 286 | 0.0 | 0.0 | 0.00 | 0.00 | 0.00 | 98 | 1010.9 |
| 20260509084351 | 50 | 286 | 0.0 | 0.0 | 0.00 | 0.00 | 0.00 | 98 | 1010.9 |
| 20260509083849 | 50 | 286 | 0.0 | 0.0 | 0.00 | 0.00 | 0.00 | 98 | 1010.9 |
| 20260509083345 | 50 | 285 | 0.0 | 0.0 | 0.00 | 0.00 | 0.00 | 98 | 1010.9 |